Regional Weather Roundup
Issued by NWS

Home | Current Version | Previous Version | Graphics & Text | Print | Product List | Glossary On
Versions: 1 2 3 4 5 6 7 8 9 10 11 12 13 14 15 16 17 18 19 20 21 22 23 24 25 26 27 28 29 30 31 32 33 34 35 36 37 38 39 40 41 42 43 44 45 46 47 48 49 50
000
ASUS45 KCYS 222110
RWRWY

WYOMING REGIONAL WEATHER ROUNDUP
NATIONAL WEATHER SERVICE CHEYENNE WY
300 PM MDT MON SEP 22 2014

NOTE:  "FAIR" INDICATES FEW OR NO CLOUDS BELOW 12,000 FEET
WITH NO SIGNIFICANT WEATHER AND/OR OBSTRUCTIONS TO VISIBILITY.

WYZ001-222200-
YELLOWSTONE NATIONAL PARK

CITY           SKY/WX    TMP DP  RH WIND       PRES   REMARKS
LK YELLOWSTONE   N/A     55  46  71 VRB5      30.26F
W YELLOWSTONE  NOT AVBL

$$
WYZ002>013-054>058-071-098>099-222200-
NORTHERN WYOMING

CITY           SKY/WX    TMP DP  RH WIND       PRES   REMARKS
JACKSON        CLOUDY    57  52  82 S10       30.21F
CODY           PTSUNNY   75  43  31 W14G23    30.02S
GREYBULL       PTSUNNY   77  44  30 SE5       29.95F
WORLAND        PTSUNNY   74  49  41 W6        29.97F
SHERIDAN       PTSUNNY   79  47  32 N8        29.95S
BUFFALO        PTSUNNY   73  44  35 NW12      30.00S
GILLETTE       PTSUNNY   78  45  30 SW16      29.93F
HULETT         FAIR      77  45  31 MISG      29.98
NEWCASTLE      FAIR      77  43  29 SE9       30.00

$$
WYZ014>020-022>026-101>103-222200-
CENTRAL WYOMING

CITY           SKY/WX    TMP DP  RH WIND       PRES   REMARKS
BIG PINEY      CLOUDY    58  47  66 NE13      30.24F
PINEDALE       MOCLDY    55  46  71 S6        30.25F
DUBOIS         FAIR      61  39  44 W22       30.18F
LANDER         MOSUNNY   76  38  25 VRB3      30.04F
RIVERTON       PTSUNNY   69  42  37 W7        30.07F
CASPER         PTSUNNY   72  44  36 SW20G29   30.08F
DOUGLAS        CLOUDY    71  43  36 SW15      30.06F

$$
WYZ021-027>030-104>119-222200-
SOUTHERN WYOMING

CITY           SKY/WX    TMP DP  RH WIND       PRES   REMARKS
EVANSTON       PTSUNNY   66  40  38 W17G23    30.25F
KEMMERER       MOCLDY    64  43  45 W17G24    30.26F
FORT BRIDGER   CLOUDY    69  43  39 NW17G24   30.27F
ROCK SPRINGS   PTSUNNY   68  45  43 W14       30.21F
DIXON          FAIR      70  47  44 SW20G26   30.23F
RAWLINS        PTSUNNY   59  49  69 SW10      30.21F
SARATOGA       CLOUDY    63  43  48 W18G25    30.23F
LARAMIE        MOSUNNY   65  42  43 SW20      30.23F
CHEYENNE       MOSUNNY   72  43  35 VRB6      30.16F
TORRINGTON     RAIN      60  56  86 SW9G22    30.10F FOG
PINE BLUFFS    FAIR      75  48  38 SW12      30.12F

$$



USA.gov is the U.S. government's official web portal to all federal, state and local government web resources and services.